Tracking 31027 objects as of 19-Jul-2025
HD Live streaming from Space Station
objects crossing your sky now

STARLINK-4317

Track STARLINK-4317 now!
10-day predictions
STARLINK-4317 is classified as:


NORAD ID: 53058
Int'l Code: 2022-077R
Perigee: 569.4 km
Apogee: 570.9 km
Inclination: 97.7 °
Period: 95.9 minutes
Semi major axis: 6941 km
RCS: Unknown
Launch date: July 11, 2022
Source: United States (US)
Launch site: AIR FORCE WESTERN TEST RANGE (AFWTR)
Your satellite tracking list
DELTA 1 DEB
Track 1 satellite(s)




NASA's NSSDC Master Catalog

Two Line Element Set (TLE):
1 53058U 22077R   25199.75433464 -.00000141  00000-0 -63576-5 0  9991
2 53058  97.6558  20.8715 0001133 158.4196 201.7076 15.01259447165821
Source of the keplerian elements: AFSPC